Regional Weather Roundup
Issued by NWS Wakefield, VA

Home | Current Version | Previous Version | Text Only | Print | Product List | Glossary Off
Versions: 1 2 3 4 5 6 7 8 9 10 11 12 13 14 15 16 17 18 19 20 21 22 23 24 25 26 27 28 29
000 ASUS41 KAKQ 250610 RWRAKQ REGIONAL WEATHER ROUNDUP NATIONAL WEATHER SERVICE WAKEFIELD VA 200 AM EDT SAT OCT 25 2014 Note: "fair" indicates few or no clouds below 12,000 feet with no significant weather and/or obstructions to visibility. * = Denotes station may not report precipitation (e.g., rain,snow,etc.), thunder or fog. VAZ042-051-052>054-056-250700- NORTHERN VIRGINIA CITY SKY/WX TMP DP RH WIND PRES REMARKS WASH NATIONAL CLEAR 55 38 52 NW8 29.97S DULLES CLEAR 41 36 82 CALM 29.97S FORT BELVOIR CLEAR 41 39 94 SE2 29.97S QUANTICO CLEAR 47 41 80 W3 29.98S FREDERICKSBRG* CLEAR 42 42 100 W3 29.97S STAFFORD* CLEAR 37 37 100 CALM 30.01S WARRENTON CLEAR 36 36 100 CALM 29.97S CULPEPER* CLEAR 37 36 93 CALM 29.98S MANASSAS* CLEAR 41 41 100 CALM 29.97F LEESBURG* CLEAR 46 41 81 CALM 29.98S WINCHESTER CLEAR 45 34 65 CALM 29.98S FRONT ROYAL* CLEAR 45 36 70 SW3 29.98F LURAY* CLEAR 39 39 100 CALM 30.00S $$ VAZ048-049-060>072-079>083-250700- CENTRAL AND SOUTH CENTRAL VIRGINIA...AND NORTH CENTRAL NORTH CAROLINA CITY SKY/WX TMP DP RH WIND PRES REMARKS RICHMOND PTCLDY 47 43 86 CALM 29.96S CHESTERFIELD* N/A N/A N/A N/A MISG N/A PETERSBURG* CLEAR 45 44 97 CALM 29.98R HANOVER CLEAR 42 41 96 CALM 29.98S TAPPAHANNOCK* CLEAR 42 38 86 CALM 29.97S CHARLOTTSVILLE CLEAR 43 38 82 SE5 29.97S ORANGE* CLEAR 37 36 93 CALM 29.99R LOUISA* CLEAR 39 37 93 CALM 29.96S FARMVILLE* CLEAR 41 39 93 CALM 29.95S CREWE* CLEAR 44 42 94 CALM 29.96S FORT PICKETT* CLEAR 48 46 93 CALM 29.96S LUNENBURG* CLEAR 52 47 83 CALM 29.96S SOUTH HILL* CLEAR 48 48 100 CALM 30.01S LAWRENCEVILLE* CLEAR 44 43 99 CALM 29.96R ROANOKE RAPIDS CLEAR 43 43 100 CALM 29.96F RALEIGH PTCLDY 47 44 90 CALM 29.98S $$ VAZ088>098-250700- SOUTHEAST VIRGINIA CITY SKY/WX TMP DP RH WIND PRES REMARKS NORFOLK CLEAR 49 46 90 CALM 29.96R VIRGINIA BEACH CLEAR 47 40 76 CALM 29.95S NORFOLK NAVAL CLEAR 55 48 77 NW6 29.97S WEST POINT* CLEAR 42 40 91 CALM 29.98S NEWPORT NEWS CLEAR 46 43 89 CALM 29.96S LANGLEY AFB CLEAR 46 46 100 W3 29.96S FORT EUSTIS CLEAR 51 51 100 NW2 29.95R WILLIAMSBURG* CLEAR 48 46 93 N3 29.97S HR EXEC AP* CLEAR 37 34 87 NE3 29.98S FRANKLIN* CLEAR 43 43 100 CALM 29.96F WAKEFIELD CLEAR 44 41 89 CALM 29.97R $$ VAZ020-022-025-037-045-250700- WEST CENTRAL AND SOUTHWEST VIRGINIA CITY SKY/WX TMP DP RH WIND PRES REMARKS STAUNTON* CLEAR 35 32 88 CALM 30.03S HOT SPRINGS VA CLEAR 43 37 79 NW13 30.02S LYNCHBURG CLEAR 40 38 93 CALM 29.99F DANVILLE CLEAR 42 39 89 CALM 29.99S SOUTH BOSTON* NOT AVBL MARTINSVILLE CLEAR 37 37 100 CALM 30.03S ROANOKE CLEAR 47 36 65 W3 30.05S BLACKSBURG CLEAR 39 39 100 CALM 30.06S DUBLIN* CLEAR 43 39 87 SW3 30.07S MARION* CLEAR 45 38 77 W12 30.09S HILLSVILLE* CLEAR 45 35 67 NW3 30.05S RICHLANDS* CLEAR 48 40 73 CALM 30.08S WISE* CLEAR 45 37 76 CALM 30.09S ABINGDON* CLEAR 41 38 90 CALM 30.09R $$ MDZ021>025-VAZ099-100-250700- SOUTHERN MARYLAND AND THE DELMARVA PENINSULA CITY SKY/WX TMP DP RH WIND PRES REMARKS PATUXENT RIVER CLEAR 51 38 60 W9 29.94F BAY BRIDGE APT N/A 54 39 58 NW5 29.94S LEONARDTOWN CLEAR 45 36 70 W3 29.96F DOVER CLEAR 53 40 61 W8 29.89R GEORGETOWN CLEAR 52 40 63 VRB3 29.92S EASTON CLEAR 53 43 69 CALM 29.97S CAMBRIDGE CLEAR 46 43 87 NW5 29.93S SALISBURY CLEAR 50 41 71 CALM 29.92S OCEAN CITY CLEAR 53 40 61 NW9 29.91S WALLOPS ISLAND CLEAR 54 42 64 NW8 29.93S ACCOMACK* CLEAR 55 43 62 NW5 29.94S $$ NCZ012>017-030>032-250700- EASTERN NORTH CAROLINA CITY SKY/WX TMP DP RH WIND PRES REMARKS ELIZABETH CITY CLEAR 53 45 74 W6 29.96S AHOSKIE* CLEAR 43 42 95 CALM 29.97S EDENTON* CLEAR 48 46 95 CALM 29.96F CURRITUCK* CLEAR 50 45 80 W3 29.96S KILL DEVIL HLS CLEAR 57 51 81 CALM 29.94S MANTEO CLEAR 50 49 97 CALM 29.96S CAPE HATTERAS CLEAR 52 50 93 NW3 29.96S TARBORO* CLEAR 43 42 96 CALM 29.98S FOG GOLDSBORO CLEAR 50 48 93 S1 29.97R FOG WASHINGTON N/A 46 45 97 CALM 29.98S GREENVILLE CLEAR 46 46 100 CALM 29.99S FOG NEW BERN CLEAR 51 47 86 CALM 29.98F WILMINGTON MOCLDY 49 47 93 CALM 29.98F $$ VAZ048-250700- ELSEWHERE CITY SKY/WX TMP DP RH WIND PRES REMARKS HARRISBURG PA CLEAR 50 38 63 N3 29.93S BALTIMORE CLEAR 48 38 68 W6 29.94S ANNAPOLIS CLEAR 52 37 56 W6 29.94R ANDREWS AFB CLEAR 54 38 55 NW8 29.95S WILMINGTON DE CLEAR 51 39 63 NW7 29.92R PHILADELPHIA PTCLDY 55 37 50 NW8 29.90S WILDWOOD NJ* CLEAR 55 41 58 NW5 29.91S ATLANTIC CITY CLEAR 46 39 76 NW5 29.89R HENDERSON NC CLEAR 46 42 86 W3 29.98R GREENSBORO CLEAR 46 40 79 CALM 29.99F ROCKY MOUNT CLEAR 46 44 93 CALM 29.97F FAYETTEVILLE CLEAR 50 47 89 W5 29.98S CHARLOTTE CLEAR 42 40 92 NW3 30.01S $$ VAZ100-250700- MARINE STATION/POSITION TIME TEMP WIND PRES WAVE SWELL AIR SEA DIR/SP/G HT/PER HT/PER (UTC) (F) (DEG/KT/KT) (MB) (FT/S) (FT/S) 44066 TX TWR #4 0600 61 66 320/ 14/ 17 1009.4F 3/10 2/10 CAPE MAY NJ 0600 59 63 310/ 7/ 12 1012.0R LEWES DE 0600 55 61 290/ 7/ 9 1012.6R 15NM E FENWICK I 0600 60 64 310/ 19/ 21 1011.8R 4/ 4 2/ 8 OCEAN-CITY-INLET 0600 57 62 330/ 13/ 15 1012.4R WACHAPREAGUE VA 0600 55 60 320/ 2/ 4 1013.8S THOMAS POINT MD 0600 55 62 300/ 12/ 14 1014.8R GOOSES REEF MD 0600 58 330/ 16/ 17 1014.2S COVE POINT MD 0600 55 320/ 9/ 12 1013.9S SOLOMONS ISLAND 0600 63 N/A BISHOPS HEAD MD 0600 56 57 310/ 10/ 12 1013.0F PINEY POINT MD 0600 340/ 13/ 14 N/A POTOMAC MD 0600 60 330/ 16/ 19 1013.4F CAMBRIDGE MD 0600 58 60 310/ 10/ 12 1013.3S LEWISETTA VA 0600 58 60 320/ 7/ 9 1013.9F RAPPAHANNOCK LGT 0600 330/ 17/ 18 1014.2F STINGRAY PT 0600 60 340/ 12/ 14 1014.6F YORK RVR RNG VA 0600 57 330/ 7/ 10 1013.9S YORKTOWN VA 0600 59 64 320/ 9/ 11 1014.1S JAMESTOWN VA 0600 54 330/ 4/ 6 N/A DOMINION TERM VA 0600 58 290/ 8/ 9 1014.4S KIPTOPEKE VA 0600 65 10/ 5/ 8 N/A CHES BAY BRIDGE 0600 60 65 310/ 7/ 8 1013.7F CHESAPEAKE LGHT 0500 64 330/ 14/ 16 1014.6R WILLOUBY STN VA 0600 57 330/ 7/ 8 1013.1S S CRANEY ISL VA 0600 270/ 4/ 6 1014.2S CAPE HENRY BUOY 0600 67 N/A 2/ 7 1ST LANDING BUOY 0600 62 330/ 8/ 10 1014.0S CAPE CHARLES BUO 0600 66 N/A 2/10 2/10 64NM E OF VA BCH 0600 66 66 320/ 16/ 19 1013.0S 4/10 2/10 DUCK PIER NC 0600 59 66 290/ 8/ 9 1013.3F 44100 DUCK FRF 0600 67 N/A 3/ 7 44056 DUCK FRF 0600 N/A 2/11 OREGON INLET NC 0600 58 64 270/ 5/ 7 1014.1F HATTERAS NC 0600 63 65 330/ 7/ 8 1014.9R DIAMOND SHLS NC 0600 65 330/ 12/ 14 1014.6S 4/10 3/10 CAPE LOOKOUT NC 0500 64 320/ 7/ 8 1014.8F $$

USA.gov is the U.S. government's official web portal to all federal, state and local government web resources and services.